,,PA_Meas_PMT16A,,PR_Meas_QMR101_102,,RH_Meas_QMH101,,SR_Meas_QMS101,,TA_Meas_QMH101,,GenWind,,GenWind,
time,status,PA,status,PR,status,RH,status,SR,status,TA,status,DirAvg,status,SpdAvg,
2012-03-04, 00:00:04,VALID,916.636,VALID,0,VALID,94.7362,VALID,0,VALID,19.4493,VALID,4,VALID,0,
2012-03-04, 00:01:04,VALID,916.607,VALID,0,VALID,94.3703,VALID,0,VALID,19.3698,VALID,4,VALID,0,
2012-03-04, 00:02:04,VALID,916.619,VALID,0,VALID,94.7057,VALID,0,VALID,19.3698,VALID,4,VALID,0,
2012-03-04, 00:03:04,VALID,916.584,VALID,0,VALID,94.9801,VALID,0,VALID,19.3684,VALID,4,VALID,0.246094,
2012-03-04, 00:04:04,VALID,916.583,VALID,0,VALID,95.1174,VALID,0,VALID,19.3879,VALID,4,VALID,0.0359375,
2012-03-04, 00:05:04,VALID,916.609,VALID,0,VALID,95.2165,VALID,0,VALID,19.4493,VALID,4,VALID,0.190234,
2012-03-04, 00:06:04,VALID,916.545,VALID,0,VALID,94.538,VALID,0,VALID,19.2918,VALID,4,VALID,0.553906,
2012-03-04, 00:07:04,VALID,916.556,VALID,0,VALID,94.8734,VALID,0,VALID,19.2723,VALID,4,VALID,0.417578,
2012-03-04, 00:08:04,VALID,916.561,VALID,0,VALID,95.2775,VALID,0,VALID,19.3323,VALID,4,VALID,0.278906,
2012-03-04, 00:09:04,VALID,916.56,VALID,0,VALID,95.3918,VALID,0,VALID,19.3113,VALID,4,VALID,0,
2012-03-04, 00:10:04,VALID,916.599,VALID,0,VALID,95.4452,VALID,0,VALID,19.3128,VALID,4,VALID,0,
2012-03-04, 00:11:04,VALID,916.577,VALID,0,VALID,95.529,VALID,0,VALID,19.3113,VALID,4,VALID,0.0484375,
2012-03-04, 00:12:04,VALID,916.538,VALID,0,VALID,95.3079,VALID,0,VALID,19.2933,VALID,4,VALID,0.0914062,
2012-03-04, 00:13:04,VALID,916.565,VALID,0,VALID,95.3156,VALID,0,VALID,19.2543,VALID,4,VALID,0.0265625,
2012-03-04, 00:14:04,VALID,916.561,VALID,0,VALID,95.4147,VALID,0,VALID,19.2334,VALID,4,VALID,0,
2012-03-04, 00:15:04,VALID,916.574,VALID,0,VALID,95.5824,VALID,0,VALID,19.2723,VALID,4,VALID,0,
2012-03-04, 00:16:04,VALID,916.556,VALID,0,VALID,95.6967,VALID,0,VALID,19.3308,VALID,4,VALID,0,
2012-03-04, 00:17:04,VALID,916.568,VALID,0,VALID,95.7425,VALID,0,VALID,19.3294,VALID,4,VALID,0,
2012-03-04, 00:18:04,VALID,916.557,VALID,0,VALID,95.6357,VALID,0,VALID,19.3308,VALID,4,VALID,0,
2012-03-04, 00:19:04,VALID,916.6,VALID,0,VALID,95.6281,VALID,0,VALID,19.3308,VALID,4,VALID,0,
2012-03-04, 00:20:04,VALID,916.549,VALID,0,VALID,95.7044,VALID,0,VALID,19.3698,VALID,4,VALID,0,
2012-03-04, 00:21:04,VALID,916.527,VALID,0,VALID,95.6205,VALID,0,VALID,19.3698,VALID,4,VALID,0,
2012-03-04, 00:22:04,VALID,916.471,VALID,0,VALID,94.8277,VALID,0,VALID,19.2543,VALID,4,VALID,0,
2012-03-04, 00:23:04,VALID,916.51,VALID,0,VALID,94.7286,VALID,0,VALID,19.1749,VALID,4,VALID,0,
2012-03-04, 00:24:04,VALID,916.476,VALID,0,VALID,94.477,VALID,0,VALID,19.1373,VALID,4,VALID,0,
2012-03-04, 00:25:04,VALID,916.494,VALID,0,VALID,94.9268,VALID,0,VALID,19.1944,VALID,4,VALID,0,
2012-03-04, 00:26:04,VALID,916.467,VALID,0,VALID,94.9801,VALID,0,VALID,19.2139,VALID,4,VALID,0,
2012-03-04, 00:27:04,VALID,916.474,VALID,0,VALID,95.0869,VALID,0,VALID,19.2139,VALID,4,VALID,0,
2012-03-04, 00:28:04,VALID,916.448,VALID,0,VALID,95.1707,VALID,0,VALID,19.2334,VALID,4,VALID,0,
2012-03-04, 00:29:04,VALID,916.496,VALID,0,VALID,95.0183,VALID,0,VALID,19.1944,VALID,4,VALID,0,
2012-03-04, 00:30:04,VALID,916.49,VALID,0,VALID,95.0488,VALID,0,VALID,19.1958,VALID,4,VALID,0,
2012-03-04, 00:31:04,VALID,916.478,VALID,0,VALID,94.9878,VALID,0,VALID,19.1749,VALID,4,VALID,0,
2012-03-04, 00:32:04,VALID,916.47,VALID,0,VALID,94.9725,VALID,0,VALID,19.1554,VALID,4,VALID,0,
2012-03-04, 00:33:04,VALID,916.485,VALID,0,VALID,95.0335,VALID,0,VALID,19.1554,VALID,4,VALID,0,
2012-03-04, 00:34:04,VALID,916.467,VALID,0,VALID,95.3079,VALID,0,VALID,19.1944,VALID,4,VALID,0.134375,
2012-03-04, 00:35:04,VALID,916.501,VALID,0,VALID,95.4985,VALID,0,VALID,19.2528,VALID,4,VALID,0.221484,
2012-03-04, 00:36:04,VALID,916.522,VALID,0,VALID,95.5824,VALID,0,VALID,19.2723,VALID,4,VALID,0.00234375,
2012-03-04, 00:37:04,VALID,916.533,VALID,0,VALID,95.4528,VALID,0,VALID,19.2918,VALID,4,VALID,0.275781,
2012-03-04, 00:38:04,VALID,916.512,VALID,0,VALID,95.4375,VALID,0,VALID,19.2514,VALID,4,VALID,0.417969,
2012-03-04, 00:39:04,VALID,916.534,VALID,0,VALID,95.6053,VALID,0,VALID,19.2918,VALID,4,VALID,0.415234,
2012-03-04, 00:40:04,VALID,916.56,VALID,0,VALID,95.4985,VALID,0,VALID,19.3113,VALID,4,VALID,0.105078,
2012-03-04, 00:41:04,VALID,916.565,VALID,0,VALID,95.1555,VALID,0,VALID,19.2738,VALID,4,VALID,0.207422,
2012-03-04, 00:42:04,VALID,916.532,VALID,0,VALID,94.9496,VALID,0,VALID,19.2139,VALID,4,VALID,0,
2012-03-04, 00:43:04,VALID,916.526,VALID,0,VALID,94.7819,VALID,0,VALID,19.1749,VALID,4,VALID,0,
2012-03-04, 00:44:04,VALID,916.504,VALID,0,VALID,94.6676,VALID,0,VALID,19.1554,VALID,4,VALID,0,
2012-03-04, 00:45:04,VALID,916.523,VALID,0,VALID,94.5685,VALID,0,VALID,19.1164,VALID,4,VALID,0,
2012-03-04, 00:46:04,VALID,916.508,VALID,0,VALID,94.477,VALID,0,VALID,19.1178,VALID,4,VALID,0,
2012-03-04, 00:47:04,VALID,916.524,VALID,0,VALID,94.4846,VALID,0,VALID,19.0983,VALID,4,VALID,0,
2012-03-04, 00:48:04,VALID,916.488,VALID,0,VALID,94.5609,VALID,0,VALID,19.0579,VALID,4,VALID,0.544141,
2012-03-04, 00:49:04,VALID,916.475,VALID,0,VALID,94.7514,VALID,0,VALID,19.0579,VALID,4,VALID,0.423047,
2012-03-04, 00:50:04,VALID,916.468,VALID,0,VALID,94.7286,VALID,0,VALID,19.0398,VALID,4,VALID,0.0121094,
2012-03-04, 00:51:04,VALID,916.449,VALID,0,VALID,94.9039,VALID,0,VALID,19.0384,VALID,4,VALID,0,
2012-03-04, 00:52:04,VALID,916.382,VALID,0,VALID,95.0564,VALID,0,VALID,19.0189,VALID,4,VALID,0,
2012-03-04, 00:53:04,VALID,916.364,VALID,0,VALID,95.2698,VALID,0,VALID,19.0579,VALID,4,VALID,0.405078,
2012-03-04, 00:54:04,VALID,916.351,VALID,0,VALID,95.468,VALID,0,VALID,19.0579,VALID,4,VALID,0.643359,
2012-03-04, 00:55:04,VALID,916.332,VALID,0,VALID,95.4299,VALID,0,VALID,19.0369,VALID,4,VALID,0.823438,
2012-03-04, 00:56:04,VALID,916.351,VALID,0,VALID,95.5138,VALID,0,VALID,19.0384,VALID,4,VALID,0.842578,
2012-03-04, 00:57:04,VALID,916.312,VALID,0,VALID,95.8111,VALID,0,VALID,19.1164,VALID,4,VALID,0.607031,
2012-03-04, 00:58:04,VALID,916.283,VALID,0,VALID,95.9331,VALID,0,VALID,19.1749,VALID,4,VALID,0.387109,
2012-03-04, 00:59:04,VALID,916.285,VALID,0,VALID,95.9483,VALID,0,VALID,19.1944,VALID,4,VALID,0.0195313,
2012-03-04, 01:00:04,VALID,916.259,VALID,0,VALID,95.8645,VALID,0.107441,VALID,19.2139,VALID,4,VALID,0,
2012-03-04, 01:01:04,VALID,916.223,VALID,0,VALID,95.7654,VALID,0,VALID,19.2139,VALID,4,VALID,0.000390625,
2012-03-04, 01:02:04,VALID,916.233,VALID,0,VALID,95.6815,VALID,0,VALID,19.1944,VALID,4,VALID,0,
2012-03-04, 01:03:04,VALID,916.26,VALID,0,VALID,95.59,VALID,0,VALID,19.1749,VALID,4,VALID,0,
2012-03-04, 01:04:04,VALID,916.227,VALID,0,VALID,95.4985,VALID,0,VALID,19.1958,VALID,4,VALID,0.200391,
2012-03-04, 01:05:04,VALID,916.174,VALID,0,VALID,95.5976,VALID,0,VALID,19.2153,VALID,4,VALID,0.148438,
2012-03-04, 01:06:04,VALID,916.181,VALID,0,VALID,95.6815,VALID,0,VALID,19.2348,VALID,4,VALID,0,
2012-03-04, 01:07:04,VALID,916.157,VALID,0,VALID,95.6434,VALID,0,VALID,19.2334,VALID,4,VALID,0,
2012-03-04, 01:08:04,VALID,916.142,VALID,0,VALID,95.7044,VALID,0,VALID,19.2334,VALID,4,VALID,0,
2012-03-04, 01:09:04,VALID,916.137,VALID,0,VALID,95.59,VALID,0,VALID,19.2139,VALID,4,VALID,0,
2012-03-04, 01:10:04,VALID,916.115,VALID,0,VALID,95.6129,VALID,0,VALID,19.2139,VALID,4,VALID,0,
2012-03-04, 01:11:04,VALID,916.108,VALID,0,VALID,95.5519,VALID,0,VALID,19.2139,VALID,4,VALID,0.405859,
2012-03-04, 01:12:04,VALID,916.063,VALID,0,VALID,94.8582,VALID,0,VALID,19.0579,VALID,4,VALID,0.441016,
2012-03-04, 01:13:04,VALID,916.058,VALID,0,VALID,95.1326,VALID,0,VALID,19.0189,VALID,4,VALID,0.770312,
2012-03-04, 01:14:04,VALID,916.042,VALID,0,VALID,95.1555,VALID,0,VALID,19.0189,VALID,4,VALID,0.652344,
2012-03-04, 01:15:04,VALID,916.032,VALID,0,VALID,94.8353,VALID,0,VALID,18.9019,VALID,4,VALID,0.779688,
2012-03-04, 01:16:04,VALID,916.043,VALID,0,VALID,95.2317,VALID,0,VALID,18.9229,VALID,4,VALID,0.51875,
2012-03-04, 01:17:04,VALID,916.036,VALID,0,VALID,95.4757,VALID,0,VALID,18.9214,VALID,4,VALID,0.530859,
2012-03-04, 01:18:04,VALID,916.06,VALID,0,VALID,95.6662,VALID,0,VALID,18.9799,VALID,4,VALID,0.410156,
2012-03-04, 01:19:04,VALID,916.043,VALID,0,VALID,95.651,VALID,0,VALID,18.9799,VALID,4,VALID,0,
2012-03-04, 01:20:04,VALID,916.023,VALID,0,VALID,95.6281,VALID,0.107441,VALID,18.9604,VALID,4,VALID,0,
2012-03-04, 01:21:04,VALID,916.031,VALID,0,VALID,95.4757,VALID,0,VALID,18.9619,VALID,4,VALID,0,
2012-03-04, 01:22:04,VALID,916.023,VALID,0,VALID,95.4452,VALID,0,VALID,18.9214,VALID,4,VALID,0,
2012-03-04, 01:23:04,VALID,916.033,VALID,0,VALID,95.5367,VALID,0,VALID,18.9619,VALID,4,VALID,0.0441406,
2012-03-04, 01:24:04,VALID,916.02,VALID,0,VALID,95.6891,VALID,0,VALID,18.9994,VALID,4,VALID,0,
2012-03-04, 01:25:04,VALID,915.986,VALID,0,VALID,95.5824,VALID,0,VALID,18.9799,VALID,4,VALID,0,
2012-03-04, 01:26:04,VALID,915.958,VALID,0,VALID,95.4757,VALID,0,VALID,19.0008,VALID,4,VALID,0,
2012-03-04, 01:27:04,VALID,915.929,VALID,0,VALID,95.5138,VALID,0,VALID,18.9994,VALID,4,VALID,0,
2012-03-04, 01:28:04,VALID,915.925,VALID,0,VALID,95.5367,VALID,0,VALID,19.0203,VALID,4,VALID,0.0464844,
2012-03-04, 01:29:04,VALID,915.891,VALID,0,VALID,95.5595,VALID,0,VALID,19.0189,VALID,4,VALID,0,
2012-03-04, 01:30:04,VALID,915.879,VALID,0,VALID,95.4528,VALID,0,VALID,19.0008,VALID,4,VALID,0,
2012-03-04, 01:31:04,VALID,915.859,VALID,0,VALID,95.4299,VALID,0,VALID,19.0189,VALID,4,VALID,0,
2012-03-04, 01:32:04,VALID,915.822,VALID,0,VALID,95.247,VALID,0,VALID,18.9814,VALID,4,VALID,0,
2012-03-04, 01:33:04,VALID,915.837,VALID,0,VALID,95.1707,VALID,0,VALID,18.9409,VALID,4,VALID,0,
2012-03-04, 01:34:04,VALID,915.788,VALID,0,VALID,95.0335,VALID,0,VALID,18.9214,VALID,4,VALID,0,
2012-03-04, 01:35:04,VALID,915.819,VALID,0,VALID,95.2165,VALID,0,VALID,18.9799,VALID,4,VALID,0,
2012-03-04, 01:36:04,VALID,915.802,VALID,0,VALID,95.2012,VALID,0,VALID,18.959,VALID,4,VALID,0.301172,
2012-03-04, 01:37:04,VALID,915.784,VALID,0,VALID,95.2622,VALID,0,VALID,19.0008,VALID,3,VALID,0.271484,
2012-03-04, 01:38:04,VALID,915.8,VALID,0,VALID,95.3232,VALID,0.107441,VALID,18.9994,VALID,4,VALID,0,
2012-03-04, 01:39:04,VALID,915.752,VALID,0,VALID,94.8582,VALID,0,VALID,18.9214,VALID,4,VALID,0,
2012-03-04, 01:40:04,VALID,915.754,VALID,0,VALID,94.6905,VALID,0,VALID,18.8824,VALID,3,VALID,0,
2012-03-04, 01:41:04,VALID,915.721,VALID,0,VALID,94.4313,VALID,0,VALID,18.824,VALID,4,VALID,0,
2012-03-04, 01:42:04,VALID,915.715,VALID,0,VALID,94.4084,VALID,0,VALID,18.8045,VALID,4,VALID,0,
2012-03-04, 01:43:04,VALID,915.703,VALID,0,VALID,94.3245,VALID,0,VALID,18.8059,VALID,4,VALID,0,
2012-03-04, 01:44:04,VALID,915.685,VALID,0,VALID,94.1644,VALID,0,VALID,18.7864,VALID,4,VALID,0,
2012-03-04, 01:45:04,VALID,915.668,VALID,0,VALID,93.9738,VALID,0,VALID,18.7474,VALID,4,VALID,0,
2012-03-04, 01:46:04,VALID,915.657,VALID,0,VALID,94.4922,VALID,0,VALID,18.8045,VALID,4,VALID,0,
2012-03-04, 01:47:04,VALID,915.623,VALID,0,VALID,94.6218,VALID,0,VALID,18.8644,VALID,4,VALID,0,
2012-03-04, 01:48:04,VALID,915.615,VALID,0,VALID,94.9649,VALID,0,VALID,18.9214,VALID,4,VALID,0,
2012-03-04, 01:49:04,VALID,915.586,VALID,0,VALID,95.2088,VALID,0,VALID,18.9994,VALID,4,VALID,0.248047,
2012-03-04, 01:50:04,VALID,915.563,VALID,0,VALID,95.0411,VALID,0,VALID,18.9994,VALID,4,VALID,0,
2012-03-04, 01:51:04,VALID,915.511,VALID,0,VALID,94.8582,VALID,0,VALID,19.0203,VALID,4,VALID,0,
2012-03-04, 01:52:04,VALID,915.526,VALID,0,VALID,94.6905,VALID,0,VALID,18.9409,VALID,4,VALID,0,
2012-03-04, 01:53:04,VALID,915.512,VALID,0,VALID,94.8429,VALID,0,VALID,18.9214,VALID,4,VALID,0,
2012-03-04, 01:54:04,VALID,915.524,VALID,0,VALID,95.0106,VALID,0,VALID,18.9409,VALID,4,VALID,0,
2012-03-04, 01:55:04,VALID,915.544,VALID,0,VALID,95.0183,VALID,0,VALID,18.9214,VALID,4,VALID,0,
2012-03-04, 01:56:04,VALID,915.5,VALID,0,VALID,94.7896,VALID,0,VALID,18.9229,VALID,4,VALID,0,
2012-03-04, 01:57:04,VALID,915.526,VALID,0,VALID,94.7057,VALID,0,VALID,18.8629,VALID,4,VALID,0,
2012-03-04, 01:58:04,VALID,915.497,VALID,0,VALID,94.8048,VALID,0,VALID,18.8824,VALID,4,VALID,0,
2012-03-04, 01:59:04,VALID,915.49,VALID,0,VALID,94.7286,VALID,0,VALID,18.8824,VALID,4,VALID,0,
2012-03-04, 02:00:04,VALID,915.458,VALID,0,VALID,94.7209,VALID,0,VALID,18.8839,VALID,4,VALID,0,
2012-03-04, 02:01:04,VALID,915.428,VALID,0,VALID,94.9115,VALID,0,VALID,18.8839,VALID,4,VALID,0,
2012-03-04, 02:02:04,VALID,915.416,VALID,0,VALID,95.064,VALID,0,VALID,18.9229,VALID,4,VALID,0,
2012-03-04, 02:03:04,VALID,915.409,VALID,0,VALID,94.9573,VALID,0,VALID,18.8629,VALID,4,VALID,0,
2012-03-04, 02:04:04,VALID,915.403,VALID,0,VALID,94.881,VALID,0,VALID,18.824,VALID,4,VALID,0,
2012-03-04, 02:05:04,VALID,915.369,VALID,0,VALID,94.9801,VALID,0,VALID,18.8254,VALID,4,VALID,0,
2012-03-04, 02:06:04,VALID,915.36,VALID,0,VALID,95.0411,VALID,0,VALID,18.824,VALID,4,VALID,0,
2012-03-04, 02:07:04,VALID,915.352,VALID,0,VALID,95.1631,VALID,0,VALID,18.824,VALID,4,VALID,0,
2012-03-04, 02:08:04,VALID,915.36,VALID,0,VALID,95.0945,VALID,0,VALID,18.8045,VALID,4,VALID,0,
2012-03-04, 02:09:04,VALID,915.357,VALID,0,VALID,95.1936,VALID,0,VALID,18.8045,VALID,4,VALID,0,
2012-03-04, 02:10:04,VALID,915.336,VALID,0,VALID,95.186,VALID,0,VALID,18.8045,VALID,4,VALID,0,
2012-03-04, 02:11:04,VALID,915.389,VALID,0,VALID,95.2241,VALID,0,VALID,18.8045,VALID,4,VALID,0,
2012-03-04, 02:12:04,VALID,915.338,VALID,0,VALID,95.2698,VALID,0,VALID,18.824,VALID,4,VALID,0.251953,
2012-03-04, 02:13:04,VALID,915.351,VALID,0,VALID,95.3766,VALID,0,VALID,18.8644,VALID,4,VALID,0.122656,
2012-03-04, 02:14:04,VALID,915.336,VALID,0,VALID,95.468,VALID,0,VALID,18.8629,VALID,4,VALID,0,
2012-03-04, 02:15:04,VALID,915.326,VALID,0,VALID,95.4757,VALID,0,VALID,18.8839,VALID,4,VALID,0,
2012-03-04, 02:16:04,VALID,915.286,VALID,0,VALID,95.4223,VALID,0,VALID,18.8629,VALID,4,VALID,0,
2012-03-04, 02:17:04,VALID,915.279,VALID,0,VALID,95.2088,VALID,0,VALID,18.8449,VALID,4,VALID,0,
2012-03-04, 02:18:04,VALID,915.316,VALID,0,VALID,94.9954,VALID,0,VALID,18.7864,VALID,4,VALID,0,
2012-03-04, 02:19:04,VALID,915.292,VALID,0,VALID,94.9192,VALID,0,VALID,18.7265,VALID,4,VALID,0,
2012-03-04, 02:20:04,VALID,915.31,VALID,0,VALID,94.8963,VALID,0,VALID,18.7474,VALID,4,VALID,0,
2012-03-04, 02:21:04,VALID,915.309,VALID,0,VALID,95.2012,VALID,0,VALID,18.8254,VALID,4,VALID,0,
2012-03-04, 02:22:04,VALID,915.334,VALID,0,VALID,95.1097,VALID,0,VALID,18.8254,VALID,4,VALID,0,
2012-03-04, 02:23:04,VALID,915.332,VALID,0,VALID,94.9115,VALID,0,VALID,18.7669,VALID,4,VALID,0,
2012-03-04, 02:24:04,VALID,915.32,VALID,0,VALID,94.012,VALID,0,VALID,18.6499,VALID,4,VALID,0.278125,
2012-03-04, 02:25:04,VALID,915.345,VALID,0,VALID,94.0272,VALID,0,VALID,18.6304,VALID,4,VALID,0,
2012-03-04, 02:26:04,VALID,915.341,VALID,0,VALID,94.7057,VALID,0,VALID,18.7084,VALID,4,VALID,0,
2012-03-04, 02:27:04,VALID,915.367,VALID,0,VALID,94.7896,VALID,0,VALID,18.707,VALID,4,VALID,0,
2012-03-04, 02:28:04,VALID,915.396,VALID,0,VALID,95.125,VALID,0,VALID,18.7655,VALID,4,VALID,0,
2012-03-04, 02:29:04,VALID,915.368,VALID,0,VALID,94.8048,VALID,0,VALID,18.7474,VALID,4,VALID,0,
2012-03-04, 02:30:04,VALID,915.386,VALID,0,VALID,94.8963,VALID,0,VALID,18.7474,VALID,4,VALID,0,
2012-03-04, 02:31:04,VALID,915.386,VALID,0,VALID,94.8887,VALID,0,VALID,18.7474,VALID,4,VALID,0,
2012-03-04, 02:32:04,VALID,915.379,VALID,0,VALID,94.8048,VALID,0,VALID,18.7474,VALID,4,VALID,0,
2012-03-04, 02:33:04,VALID,915.357,VALID,0,VALID,94.8582,VALID,0,VALID,18.7084,VALID,4,VALID,0,
2012-03-04, 02:34:04,VALID,915.377,VALID,0,VALID,95.0792,VALID,0,VALID,18.7474,VALID,4,VALID,0,
2012-03-04, 02:35:04,VALID,915.38,VALID,0,VALID,95.0259,VALID,0,VALID,18.7474,VALID,4,VALID,0,
2012-03-04, 02:36:04,VALID,915.378,VALID,0,VALID,95.125,VALID,0,VALID,18.7474,VALID,4,VALID,0,
2012-03-04, 02:37:04,VALID,915.407,VALID,0,VALID,95.003,VALID,0,VALID,18.6875,VALID,4,VALID,0,
2012-03-04, 02:38:04,VALID,915.369,VALID,0,VALID,94.9192,VALID,0,VALID,18.668,VALID,4,VALID,0,
2012-03-04, 02:39:04,VALID,915.403,VALID,0,VALID,95.0335,VALID,0,VALID,18.7084,VALID,4,VALID,0,
2012-03-04, 02:40:04,VALID,915.404,VALID,0,VALID,95.0716,VALID,0,VALID,18.7279,VALID,4,VALID,0,
2012-03-04, 02:41:04,VALID,915.404,VALID,0,VALID,95.1097,VALID,0,VALID,18.7265,VALID,4,VALID,0,
2012-03-04, 02:42:04,VALID,915.401,VALID,0,VALID,95.2393,VALID,0,VALID,18.746,VALID,4,VALID,0,
2012-03-04, 02:43:04,VALID,915.351,VALID,0,VALID,95.3537,VALID,0,VALID,18.7655,VALID,4,VALID,0,
2012-03-04, 02:44:04,VALID,915.385,VALID,0,VALID,95.0488,VALID,0,VALID,18.7265,VALID,4,VALID,0,
2012-03-04, 02:45:04,VALID,915.386,VALID,0,VALID,95.1402,VALID,0,VALID,18.7265,VALID,4,VALID,0,
2012-03-04, 02:46:04,VALID,915.378,VALID,0,VALID,95.2241,VALID,0,VALID,18.7655,VALID,4,VALID,0,
2012-03-04, 02:47:04,VALID,915.371,VALID,0,VALID,95.0106,VALID,0,VALID,18.7669,VALID,4,VALID,0,
2012-03-04, 02:48:04,VALID,915.347,VALID,0,VALID,94.8963,VALID,0,VALID,18.7474,VALID,4,VALID,0,
2012-03-04, 02:49:04,VALID,915.339,VALID,0,VALID,95.0106,VALID,0,VALID,18.8254,VALID,4,VALID,0,
2012-03-04, 02:50:04,VALID,915.327,VALID,0,VALID,94.5913,VALID,0,VALID,18.7655,VALID,4,VALID,0,
2012-03-04, 02:51:04,VALID,915.284,VALID,0,VALID,94.4008,VALID,0,VALID,18.7655,VALID,4,VALID,0,
2012-03-04, 02:52:04,VALID,915.291,VALID,0,VALID,94.233,VALID,0,VALID,18.8059,VALID,4,VALID,0,
2012-03-04, 02:53:04,VALID,915.295,VALID,0,VALID,94.1187,VALID,0,VALID,18.8254,VALID,4,VALID,0.167578,
2012-03-04, 02:54:04,VALID,915.309,VALID,0,VALID,93.7299,VALID,0,VALID,18.8045,VALID,4,VALID,0,
2012-03-04, 02:55:04,VALID,915.263,VALID,0,VALID,92.6397,VALID,0,VALID,18.7265,VALID,4,VALID,0,
2012-03-04, 02:56:04,VALID,915.249,VALID,0,VALID,92.3653,VALID,0,VALID,18.7279,VALID,4,VALID,0,
2012-03-04, 02:57:04,VALID,915.232,VALID,0,VALID,92.4873,VALID,0,VALID,18.6875,VALID,4,VALID,0,
2012-03-04, 02:58:04,VALID,915.2,VALID,0,VALID,92.3196,VALID,0,VALID,18.6694,VALID,4,VALID,0,
2012-03-04, 02:59:04,VALID,915.184,VALID,0,VALID,92.9981,VALID,0,VALID,18.6875,VALID,4,VALID,0.117578,
2012-03-04, 03:00:04,VALID,915.151,VALID,0,VALID,92.9523,VALID,0,VALID,18.6485,VALID,4,VALID,0.0996094,
2012-03-04, 03:01:04,VALID,915.151,VALID,0,VALID,93.3945,VALID,0,VALID,18.6889,VALID,4,VALID,0,
2012-03-04, 03:02:04,VALID,915.179,VALID,0,VALID,93.5851,VALID,0,VALID,18.6694,VALID,4,VALID,0,
2012-03-04, 03:03:04,VALID,915.171,VALID,0,VALID,93.1886,VALID,0,VALID,18.6095,VALID,4,VALID,0,
2012-03-04, 03:04:04,VALID,915.145,VALID,0,VALID,93.2954,VALID,0,VALID,18.59,VALID,4,VALID,0,
2012-03-04, 03:05:04,VALID,915.108,VALID,0,VALID,93.425,VALID,0,VALID,18.6109,VALID,4,VALID,0,
2012-03-04, 03:06:04,VALID,915.081,VALID,0,VALID,92.9447,VALID,0,VALID,18.572,VALID,4,VALID,0,
2012-03-04, 03:07:04,VALID,915.101,VALID,0,VALID,93.0514,VALID,0,VALID,18.5525,VALID,4,VALID,0,
2012-03-04, 03:08:04,VALID,915.056,VALID,0,VALID,92.9904,VALID,0,VALID,18.494,VALID,4,VALID,0,
2012-03-04, 03:09:04,VALID,915.044,VALID,0,VALID,93.4402,VALID,0,VALID,18.4745,VALID,4,VALID,0.408594,
2012-03-04, 03:10:04,VALID,915.017,VALID,0,VALID,93.5622,VALID,0,VALID,18.455,VALID,4,VALID,0,
2012-03-04, 03:11:04,VALID,915.013,VALID,0,VALID,93.7909,VALID,0,VALID,18.4745,VALID,4,VALID,0.314453,
2012-03-04, 03:12:04,VALID,915.052,VALID,0,VALID,94.0043,VALID,0,VALID,18.5135,VALID,4,VALID,0.173828,
2012-03-04, 03:13:04,VALID,915.069,VALID,0,VALID,93.8519,VALID,0,VALID,18.533,VALID,4,VALID,0,
2012-03-04, 03:14:04,VALID,915.05,VALID,0,VALID,93.5698,VALID,0,VALID,18.533,VALID,4,VALID,0,
2012-03-04, 03:15:04,VALID,915.038,VALID,0,VALID,93.4326,VALID,0,VALID,18.5121,VALID,4,VALID,0,
2012-03-04, 03:16:04,VALID,914.995,VALID,0,VALID,93.4707,VALID,0,VALID,18.5525,VALID,4,VALID,0,
2012-03-04, 03:17:04,VALID,914.962,VALID,0,VALID,93.2877,VALID,0,VALID,18.5525,VALID,4,VALID,0,
2012-03-04, 03:18:04,VALID,914.94,VALID,0,VALID,93.3868,VALID,0,VALID,18.5525,VALID,4,VALID,0,
2012-03-04, 03:19:04,VALID,914.944,VALID,0,VALID,93.4402,VALID,0,VALID,18.5525,VALID,4,VALID,0,
2012-03-04, 03:20:04,VALID,914.972,VALID,0,VALID,93.7375,VALID,0,VALID,18.572,VALID,4,VALID,0,
2012-03-04, 03:21:04,VALID,914.976,VALID,0,VALID,93.6842,VALID,0,VALID,18.5705,VALID,4,VALID,0,
2012-03-04, 03:22:04,VALID,914.97,VALID,0,VALID,93.6079,VALID,0,VALID,18.5914,VALID,4,VALID,0,
2012-03-04, 03:23:04,VALID,915.004,VALID,0,VALID,93.646,VALID,0,VALID,18.6109,VALID,4,VALID,0.521484,
2012-03-04, 03:24:04,VALID,915.019,VALID,0,VALID,93.8976,VALID,0,VALID,18.6499,VALID,4,VALID,0.504687,
2012-03-04, 03:25:04,VALID,915.04,VALID,0,VALID,94.1721,VALID,0,VALID,18.7279,VALID,4,VALID,0.632422,
2012-03-04, 03:26:04,VALID,915.047,VALID,0,VALID,94.2026,VALID,0,VALID,18.8449,VALID,4,VALID,0.579687,
2012-03-04, 03:27:04,VALID,915.06,VALID,0,VALID,93.5088,VALID,0,VALID,18.9424,VALID,4,VALID,0.437109,
2012-03-04, 03:28:04,VALID,915.096,VALID,0,VALID,92.8989,VALID,0,VALID,18.9814,VALID,4,VALID,0.258594,
2012-03-04, 03:29:04,VALID,915.11,VALID,0,VALID,92.6702,VALID,0,VALID,18.9814,VALID,4,VALID,0,
2012-03-04, 03:30:04,VALID,915.109,VALID,0,VALID,92.472,VALID,0,VALID,18.9604,VALID,4,VALID,0,
2012-03-04, 03:31:04,VALID,915.118,VALID,0,VALID,92.5254,VALID,0,VALID,18.9814,VALID,4,VALID,0,
2012-03-04, 03:32:04,VALID,915.116,VALID,0,VALID,92.5102,VALID,0,VALID,18.9604,VALID,4,VALID,0,
2012-03-04, 03:33:04,VALID,915.172,VALID,0,VALID,92.7617,VALID,0,VALID,19.0008,VALID,4,VALID,0,
2012-03-04, 03:34:04,VALID,915.184,VALID,0,VALID,92.1671,VALID,0,VALID,18.9604,VALID,4,VALID,0.00546875,
2012-03-04, 03:35:04,VALID,915.214,VALID,0,VALID,92.0604,VALID,0,VALID,19.0008,VALID,4,VALID,0,
2012-03-04, 03:36:04,VALID,915.216,VALID,0,VALID,91.7021,VALID,0,VALID,19.0008,VALID,4,VALID,0,
2012-03-04, 03:37:04,VALID,915.234,VALID,0,VALID,91.1227,VALID,0,VALID,19.0008,VALID,4,VALID,0,
2012-03-04, 03:38:04,VALID,915.276,VALID,0,VALID,90.8254,VALID,0,VALID,18.9799,VALID,4,VALID,0.182812,
2012-03-04, 03:39:04,VALID,915.286,VALID,0,VALID,91.9003,VALID,0,VALID,19.0398,VALID,320,VALID,0.764063,
2012-03-04, 03:40:04,VALID,915.339,VALID,0,VALID,91.5725,VALID,0,VALID,19.1164,VALID,320,VALID,0.321094,
2012-03-04, 03:41:04,VALID,915.34,VALID,0,VALID,90.894,VALID,0,VALID,19.1958,VALID,320,VALID,0.174609,
2012-03-04, 03:42:04,VALID,915.355,VALID,0,VALID,90.833,VALID,0,VALID,19.2738,VALID,320,VALID,0.724219,
2012-03-04, 03:43:04,VALID,915.373,VALID,0,VALID,90.6348,VALID,0,VALID,19.3128,VALID,320,VALID,0.158203,
2012-03-04, 03:44:04,VALID,915.359,VALID,0,VALID,90.4976,VALID,0,VALID,19.3518,VALID,320,VALID,0,
2012-03-04, 03:45:04,VALID,915.373,VALID,0,VALID,90.3832,VALID,0,VALID,19.3308,VALID,320,VALID,0.214844,
2012-03-04, 03:46:04,VALID,915.352,VALID,0,VALID,90.5814,VALID,0,VALID,19.3728,VALID,320,VALID,0.197266,
2012-03-04, 03:47:04,VALID,915.404,VALID,0,VALID,90.5204,VALID,0,VALID,19.3908,VALID,320,VALID,0,
2012-03-04, 03:48:04,VALID,915.374,VALID,0,VALID,90.3222,VALID,0,VALID,19.4103,VALID,320,VALID,0,
2012-03-04, 03:49:04,VALID,915.404,VALID,0,VALID,90.1393,VALID,0,VALID,19.4478,VALID,320,VALID,0,
2012-03-04, 03:50:04,VALID,915.378,VALID,0,VALID,90.1393,VALID,0,VALID,19.5078,VALID,320,VALID,0,
2012-03-04, 03:51:04,VALID,915.36,VALID,0,VALID,89.3312,VALID,0,VALID,19.4883,VALID,320,VALID,0,
2012-03-04, 03:52:04,VALID,915.37,VALID,0,VALID,89.0491,VALID,0,VALID,19.4688,VALID,320,VALID,0.0152344,
2012-03-04, 03:53:04,VALID,915.399,VALID,0,VALID,89.3312,VALID,0,VALID,19.4298,VALID,320,VALID,0,
2012-03-04, 03:54:04,VALID,915.378,VALID,0,VALID,89.5599,VALID,0,VALID,19.3908,VALID,320,VALID,0,
2012-03-04, 03:55:04,VALID,915.391,VALID,0,VALID,89.8648,VALID,0,VALID,19.3518,VALID,320,VALID,0,
2012-03-04, 03:56:04,VALID,915.383,VALID,0,VALID,90.2231,VALID,0,VALID,19.3128,VALID,320,VALID,0,
2012-03-04, 03:57:04,VALID,915.409,VALID,0,VALID,90.4823,VALID,0,VALID,19.2933,VALID,320,VALID,0,
2012-03-04, 03:58:04,VALID,915.391,VALID,0,VALID,90.6805,VALID,0,VALID,19.2723,VALID,320,VALID,0,
2012-03-04, 03:59:04,VALID,915.399,VALID,0,VALID,90.8025,VALID,0,VALID,19.2933,VALID,320,VALID,0,